STARLINK-31078, 58638

Orbit data source: Space-Track

STARLINK-31078, 58638 is a payload satellite owned by SpaceX/Seattle (US) in LEO that was launched on Sat, 23 Dec 2023 UTC via an FALCON 9 launch vehicle from the Air Force Eastern Test Range (AFETR). Payload-class satellites include a variety of spacecraft equipped with specific instruments for various scientific and technological missions. These include communications satellites like Starlink; space stations such as the ISS; scientific satellites like the Hubble; Earth observation satellites from companies like Planet Labs, Umbra, and HawkEye 360; GPS; miniature CubeSats for education and research; and military/defense satellites.

Loading next visibility...
Identifier
58638, 2023-203W
Orbit
LEO
Country
Flag of USUS
Related business
Manufacturer
SpaceX/Seattle
Mission
Operational Commercial Communications
Bus & Motor
STARLINK V2M, Unknown motor
Mass
730 kg wet, ~700 kg dry
Launch date (UTC)
2023-12-23 (2 years ago)
Launch vehicle
FALCON 9
Launch site
Air Force Eastern Test Range (AFETR)
Object type
Payload
Rocket body
Debris
Shape & HBR
Box + 2 Pan, 17.7 m
Radar Cross Section
33.884 m², Large (>1 m²)

Expand to show TLE details & history
Last TLE update: 2 days ago

TLE from 2 days ago
0 STARLINK-31078
1 58638U 23203W   26171.44133272  .00002239  00000-0  90914-4 0  9996
2 58638  43.0003 207.0031 0001757 284.7850  75.2807 15.27568189139272
Epoch: 2026-06-20T10:35Z
TLE epoch observation values (Epoch: 2026-06-20T10:35:31.147Z)
Latitude
0.00001°
Longitude
139.46742°
Altitude
482.554 km
Speed
7.626 km/s
True Right ascension
13h 48m 00s
True Declination
0° 00' 00"
Sunlit
Object was in full shadow at epoch
Visualization orbit readout
Latitude
Unknown
Longitude
Unknown
Altitude
Unknown
Speed
Unknown
Apparent Right ascension
Unknown
Apparent Declination
Unknown
Sunlit
N/A
Visualization observer readout
Local Sidereal Time
21:27:02
Azimuth
Unknown
Elevation
Unknown
Doppler factor
Unknown
Orbital elements
Apogee altitude
486.235 km
Perigee altitude
483.824 km
Semi-major axis
6,863.167 km
Eccentricity
0.00018
Inclination
43.0003°
RAAN
207.0031°
Arg. of periapsis
284.785°
True anomaly
75.30017°
Mean anomaly
75.2807°
Eccentric anomaly
75.29044°
Mean motion
3.8173 °/min
Orbital period
94.31 mins
BSTAR
0.000090914
Loading maneuver chart data...
Computing Atmospheric mass density...
Loading historical data...
Loading historical data...
Loading historical data...
Loading historical data...
Loading historical data...
Loading historical data...
Loading historical data...

Documentation

Showing up to 5 results
|